OpenBCM V1.13 (Linux)

Packet Radio Mailbox

DB0FHN

[JN59NK Nuernberg]

 Login: GUEST





  
UA9FBV > KEPS     14.02.03 10:04l 206 Lines 5448 Bytes #999 (0) @ AMSAT
BID : ORB03044.W
Read: DB0FHN GUEST
Subj: Orbital Elements  03044.WEATHER
Path: DB0FHN<DB0ZWI<DB0HST<ON0DXC<WA7V<RZ6HXA<UA9FBV
Sent: 030214/0728Z @:UA9FBV.PRM.RUS.AS #:28211 [Perm] FBB7.00i $:ORB03044.W
From: UA9FBV@UA9FBV.PRM.RUS.AS
To  : KEPS@AMSAT

HR AMSAT ORBITAL ELEMENTS FOR WEATHER SATELLITES
FROM WA5QGD FORT WORTH,TX February 13, 2003
SEND SUBSCRIBE/UNSUBSCRIBE TO majordomo@amsat.org ONLY
BID: ORB03044.W
TO ALL RADIO AMATEURS BT

Satellite: NOAA-10
Catalog number: 16969
Epoch time:      03044.92086218
Element set:     660
Inclination:       98.7293 deg
RA of node:        39.0407 deg
Eccentricity:    0.0013350
Arg of perigee:    99.4090 deg
Mean anomaly:     260.8600 deg
Mean motion:   14.27062257 rev/day
Decay rate:       1.98e-06 rev/day^2
Epoch rev:           85324
Checksum:              303

Satellite: NOAA-11
Catalog number: 19531
Epoch time:      03044.91402461
Element set:     498
Inclination:       98.9021 deg
RA of node:       126.3117 deg
Eccentricity:    0.0011227
Arg of perigee:   212.9674 deg
Mean anomaly:     147.0799 deg
Mean motion:   14.14535639 rev/day
Decay rate:       2.18e-06 rev/day^2
Epoch rev:           74214
Checksum:              291

Satellite: NOAA-12
Catalog number: 21263
Epoch time:      03044.91993726
Element set:     967
Inclination:       98.6256 deg
RA of node:        34.6256 deg
Eccentricity:    0.0013636
Arg of perigee:    37.7170 deg
Mean anomaly:     322.4962 deg
Mean motion:   14.25078021 rev/day
Decay rate:       4.00e-06 rev/day^2
Epoch rev:           61055
Checksum:              291

Satellite: MET-3/5
Catalog number: 21655
Epoch time:      03043.97633637
Element set:    0606
Inclination:      082.5539 deg
RA of node:       042.8091 deg
Eccentricity:    0.0012508
Arg of perigee:   209.6358 deg
Mean anomaly:     150.4056 deg
Mean motion:   13.16979613 rev/day
Decay rate:        5.1e-07 rev/day^2
Epoch rev:           55274
Checksum:              305

Satellite: MET-2/21
Catalog number: 22782
Epoch time:      03043.82136151
Element set:     516
Inclination:       82.5466 deg
RA of node:       219.4508 deg
Eccentricity:    0.0022548
Arg of perigee:     5.7246 deg
Mean anomaly:     354.4160 deg
Mean motion:   13.83531774 rev/day
Decay rate:        7.8e-07 rev/day^2
Epoch rev:           47729
Checksum:              300

Satellite: OKEAN-4
Catalog number: 23317
Epoch time:      03044.51385109
Element set:     182
Inclination:       82.5420 deg
RA of node:       333.6220 deg
Eccentricity:    0.0024856
Arg of perigee:    68.2615 deg
Mean anomaly:     292.1251 deg
Mean motion:   14.80899224 rev/day
Decay rate:      1.860e-05 rev/day^2
Epoch rev:           44935
Checksum:              285

Satellite: NOAA-14
Catalog number: 23455
Epoch time:      03044.87244015
Element set:     521
Inclination:       99.1879 deg
RA of node:        63.3172 deg
Eccentricity:    0.0008600
Arg of perigee:   241.1411 deg
Mean anomaly:     118.8898 deg
Mean motion:   14.13295459 rev/day
Decay rate:       1.78e-06 rev/day^2
Epoch rev:           41881
Checksum:              301

Satellite: SICH-1
Catalog number: 23657
Epoch time:      03043.90619398
Element set:    0058
Inclination:      082.5302 deg
RA of node:       114.9683 deg
Eccentricity:    0.0026268
Arg of perigee:   053.1181 deg
Mean anomaly:     307.2437 deg
Mean motion:   14.79948191 rev/day
Decay rate:      1.580e-05 rev/day^2
Epoch rev:           40139
Checksum:              306

Satellite: NOAA-15
Catalog number: 25338
Epoch time:      03044.89133965
Element set:       4
Inclination:       98.5502 deg
RA of node:        67.1682 deg
Eccentricity:    0.0010382
Arg of perigee:   336.0221 deg
Mean anomaly:      24.0474 deg
Mean motion:   14.24242323 rev/day
Decay rate:       2.02e-06 rev/day^2
Epoch rev:           24713
Checksum:              255

Satellite: RESURS
Catalog number: 25394
Epoch time:      03044.85751669
Element set:     447
Inclination:       98.6313 deg
RA of node:       122.8730 deg
Eccentricity:    0.0002329
Arg of perigee:   112.4605 deg
Mean anomaly:     247.6820 deg
Mean motion:   14.23876279 rev/day
Decay rate:       1.64e-06 rev/day^2
Epoch rev:           23886
Checksum:              309

Satellite: FENGYUN1
Catalog number: 25730
Epoch time:      03044.90451437
Element set:     766
Inclination:       98.6342 deg
RA of node:        69.4794 deg
Eccentricity:    0.0014719
Arg of perigee:    19.5332 deg
Mean anomaly:     340.6403 deg
Mean motion:   14.11732924 rev/day
Decay rate:       -1.8e-07 rev/day^2
Epoch rev:           19397
Checksum:              300

Satellite: OKEAN-0
Catalog number: 25860
Epoch time:      03044.53933005
Element set:     997
Inclination:       97.8641 deg
RA of node:        92.2368 deg
Eccentricity:    0.0002129
Arg of perigee:    86.6821 deg
Mean anomaly:     273.4632 deg
Mean motion:   14.72600172 rev/day
Decay rate:       7.92e-06 rev/day^2
Epoch rev:           19219
Checksum:              302

Satellite: NOAA-16
Catalog number: 26536
Epoch time:      03044.62128179
Element set:     206
Inclination:       98.9012 deg
RA of node:       352.9413 deg
Eccentricity:    0.0010346
Arg of perigee:   324.3152 deg
Mean anomaly:      35.7318 deg
Mean motion:   14.11903458 rev/day
Decay rate:       6.13e-06 rev/day^2
Epoch rev:           12345
Checksum:              272

Satellite: NOAA-17
Catalog number: 27453
Epoch time:      03044.85557399
Element set:     302
Inclination:       98.7595 deg
RA of node:       116.0927 deg
Eccentricity:    0.0012196
Arg of perigee:    14.4133 deg
Mean anomaly:     345.7391 deg
Mean motion:   14.23290755 rev/day
Decay rate:       3.02e-06 rev/day^2
Epoch rev:            3329
Checksum:              302



Read previous mail | Read next mail


 15.06.2026 03:18:45lGo back Go up